Regional Weather Roundup
Issued by NWS Northern Indiana

Home | Current Version | Previous Version | Graphics & Text | Print | Product List | Glossary On
Versions: 1 2 3 4 5 6 7 8 9 10 11 12 13 14 15 16 17 18 19 20 21 22 23 24 25 26 27 28 29 30 31 32 33 34 35 36 37 38 39 40 41 42 43 44 45 46 47 48 49 50
000
ASUS43 KIWX 230310
RWRIWX

KIWX WEATHER ROUNDUP
NATIONAL WEATHER SERVICE NORTHERN INDIANA
1000 PM EST WED FEB 22 2017

NOTE: "FAIR" INDICATES FEW OR NO CLOUDS BELOW 12,000 FEET WITH NO
SIGNIFICANT WEATHER AND/OR OBSTRUCTIONS TO VISIBILITY.

* THESE STATIONS ARE NOT UNDER NWS QUALITY CONTROL. THEY ALSO MAY NOT
  REPORT WEATHER SUCH AS PRECIPITATION OR FOG.

INZ001>027-230400-
NORTHERN INDIANA

CITY           SKY/WX    TMP DP  RH WIND       PRES   REMARKS
GARY*          CLEAR     61  54  77 S9        29.65R
VALPARAISO     PTCLDY    58  54  86 S8        29.68R
MICHIGAN CITY* CLEAR     59  54  82 S14G20    29.66R
LAPORTE*       PTCLDY    56  53  87 S8        29.68R
KNOX*          PTCLDY    57  37  47 S14       29.67S
SOUTH BEND     MOCLDY    57  53  86 S12       29.68S
GOSHEN         CLEAR     57  50  77 S9        29.68F
MONTICELLO*    CLEAR     60  54  80 S8        29.69S
LOGANSPORT*    CLEAR     55  54  94 S12G18    29.71S
ROCHESTER*     CLEAR     59  54  82 S12       29.70S
WARSAW*        CLEAR     55  52  88 S5        29.69F
ANGOLA*        CLEAR     55  46  71 S5        29.71S
FORT WAYNE     PTCLDY    55  51  86 S10       29.73F
HUNTINGTON*    CLEAR     55  54  95 S6        29.72F
PERU/GRISSOM   CLEAR     57  57 100 S12       29.70F
MARION*        CLEAR     56  53  90 S9        29.74F

$$
INZ028>050-230400-
CENTRAL INDIANA

CITY           SKY/WX    TMP DP  RH WIND       PRES   REMARKS
LAFAYETTE      CLEAR     60  54  80 S8        29.70S
KOKOMO*        CLEAR     54  52  93 S10       29.73F
MUNCIE*        CLEAR     59  54  83 S7        29.75F
INDIANAPOLIS   PTCLDY    59  54  83 S10       29.74F

$$
MIZ043>046-050>051-056>058-064>065-071>073-077>080-230400-
SOUTHWEST LOWER MICHIGAN

CITY           SKY/WX    TMP DP  RH WIND       PRES   REMARKS
BATTLE CREEK   CLEAR     56  52  86 S15       29.67F
BENTON HARBOR  CLEAR     59  52  77 S9        29.64R
COLDWATER*     PTCLDY    56  53  89 S8        29.69S
HILLSDALE*     CLOUDY    55  52  88 S8        29.71S
HOLLAND        CLEAR     57  52  83 S14       29.61S
GRAND RAPIDS   PTCLDY    56  51  84 S16       29.62S
KALAMAZOO      CLEAR     55  50  83 S14       29.67S
STURGIS*       PTCLDY    55  52  91 S10       29.68S
THREE RIVERS*  FAIR      55  51  89 S10       29.67F

$$
OHZ001>008-015>018-024>025-230400-
NORTHWEST OHIO

CITY           SKY/WX    TMP DP  RH WIND       PRES   REMARKS
WAUSEON*       MOCLDY    57  54  88 S10       29.73F
DEFIANCE       CLEAR     56  51  84 S10       29.73F
FINDLAY        CLOUDY    59  53  80 S9        29.76F
TOLEDO EXPRESS MOCLDY    57  55  93 S7        29.73F
TOLEDO METCALF CLOUDY    59  55  87 S10       29.75F FOG
LIMA           CLOUDY    58  56  93 S10       29.78S

$$
AND FOR LAKE MICHIGAN COASTAL AND OPEN LAKE BUOY OBSERVATIONS

STATION/POSITION TEMP    WIND        PRES    VSBY  WAVE
                 AIR SEA DIR/SP/G                  HT/PER
                 (F)     (DEG/KT/KT) (MB)    (MI)  (FT/S)
CALUMET HARBOR    61     190/ 11/ 15 1003.1F
MICHIGAN CITY     59     160/ 14/ 17   N/A
BURNS HARBOR      59     180/ 12/ 17 1004.4R

$$
&&



USA.gov is the U.S. government's official web portal to all federal, state and local government web resources and services.